Location: North Evanston
(42.0634°N, 87.6976°W)
Time: 19:55:19
(UTC+00:00)

Vanguard 2 Rocket - Pass Details

Date: 18 May 2026
Orbit: 553 x 3286 km, 32.9° (Epoch: 6 June)

Event Time Altitude Azimuth Distance (km) Brightness Sun altitude
Rises 23:11:41 0° 278° (W) 7,045 13.1 19.5°
Reaches altitude 10° 23:18:15 10° 264° (W) 6,194 12.9 18.3°
Maximum altitude 23:30:26 20° 226° (SW) 5,292 11.4 16.1°
Drops below altitude 10° 23:41:46 10° 187° (S) 5,649 10.9 14.1°
Sets 23:47:28 0° 172° (S) 6,263 10.9 13.0°
